| time (UTC) | temp F | wind direction | speed MPH | gust MPH | rain 1hr in | rain 24hr in | rain mn in | humidity % | barometer mb |
| 20260504012008 | 58 | 338 | 0.0 | 0.0 | 0.00 | 0.00 | 0.00 | 86 | 992.3 |
| 20260504011505 | 58 | 338 | 0.0 | 0.0 | 0.00 | 0.00 | 0.00 | 86 | 992.2 |
| 20260504011008 | 58 | 338 | 0.0 | 0.0 | 0.00 | 0.00 | 0.00 | 86 | 992.2 |
| 20260504010505 | 58 | 338 | 0.0 | 0.0 | 0.00 | 0.00 | 0.00 | 86 | 992.0 |
| 20260504010005 | 58 | 344 | 0.0 | 0.0 | 0.00 | 0.00 | 0.00 | 86 | 992.1 |
| 20260504005505 | 58 | 338 | 0.0 | 0.0 | 0.00 | 0.00 | 0.00 | 86 | 992.1 |
| 20260504005009 | 58 | 338 | 0.0 | 0.0 | 0.00 | 0.00 | 0.00 | 86 | 992.1 |
| 20260504004505 | 58 | 338 | 0.0 | 0.0 | 0.00 | 0.00 | 0.00 | 86 | 992.1 |
| 20260504004008 | 58 | 338 | 0.0 | 0.0 | 0.00 | 0.00 | 0.00 | 86 | 992.1 |
| 20260504003505 | 58 | 338 | 0.0 | 0.0 | 0.00 | 0.00 | 0.00 | 86 | 992.3 |
| 20260504003008 | 58 | 338 | 0.0 | 0.0 | 0.00 | 0.00 | 0.00 | 86 | 992.3 |
| 20260504002505 | 58 | 338 | 0.0 | 0.0 | 0.00 | 0.00 | 0.00 | 86 | 992.4 |
| 20260504002008 | 58 | 338 | 0.0 | 0.0 | 0.00 | 0.00 | 0.00 | 86 | 992.4 |
| 20260504001506 | 58 | 338 | 0.0 | 0.0 | 0.00 | 0.00 | 0.00 | 86 | 992.5 |
| 20260504001008 | 58 | 338 | 0.0 | 0.0 | 0.00 | 0.00 | 0.00 | 86 | 992.5 |
| 20260504000506 | 58 | 338 | 0.0 | 0.0 | 0.00 | 0.00 | 0.00 | 86 | 992.5 |
| 20260504000005 | 58 | 338 | 0.0 | 0.0 | 0.00 | 0.00 | 0.00 | 86 | 992.6 |
| 20260503235505 | 58 | 338 | 0.0 | 0.0 | 0.00 | 0.00 | 0.00 | 86 | 992.5 |
| 20260503235007 | 58 | 338 | 0.0 | 0.0 | 0.00 | 0.00 | 0.00 | 86 | 992.5 |
| 20260503234505 | 58 | 338 | 0.0 | 0.0 | 0.00 | 0.00 | 0.00 | 86 | 992.6 |
| 20260503234008 | 58 | 338 | 0.0 | 0.0 | 0.00 | 0.00 | 0.00 | 86 | 992.6 |
| 20260503233504 | 58 | 338 | 0.0 | 0.0 | 0.00 | 0.00 | 0.00 | 86 | 992.6 |
| 20260503233009 | 58 | 338 | 0.0 | 0.0 | 0.00 | 0.00 | 0.00 | 86 | 992.5 |
| 20260503232505 | 58 | 338 | 0.0 | 0.0 | 0.00 | 0.00 | 0.00 | 86 | 992.6 |
| 20260503232010 | 58 | 338 | 0.0 | 0.0 | 0.00 | 0.00 | 0.00 | 86 | 992.7 |
| 20260503231525 | 58 | 338 | 0.0 | 0.0 | 0.00 | 0.00 | 0.00 | 86 | 992.5 |
| 20260503231028 | 58 | 338 | 0.0 | 0.0 | 0.00 | 0.00 | 0.00 | 86 | 992.6 |
| 20260503230525 | 58 | 338 | 0.0 | 0.0 | 0.00 | 0.00 | 0.00 | 86 | 992.5 |
| 20260503225525 | 58 | 338 | 0.0 | 0.0 | 0.00 | 0.00 | 0.00 | 86 | 992.5 |
| 20260503225027 | 58 | 338 | 0.0 | 0.0 | 0.00 | 0.00 | 0.00 | 86 | 992.8 |
| 20260503224524 | 58 | 338 | 0.0 | 0.0 | 0.00 | 0.00 | 0.00 | 86 | 992.8 |
| 20260503224029 | 58 | 338 | 0.0 | 0.0 | 0.00 | 0.00 | 0.00 | 86 | 992.9 |
| 20260503223525 | 58 | 338 | 0.0 | 0.0 | 0.00 | 0.00 | 0.00 | 86 | 992.8 |
| 20260503223029 | 58 | 338 | 0.0 | 0.0 | 0.00 | 0.00 | 0.00 | 86 | 992.9 |
| 20260503222525 | 58 | 338 | 0.0 | 0.0 | 0.00 | 0.00 | 0.00 | 86 | 992.9 |
| 20260503222028 | 58 | 338 | 0.0 | 0.0 | 0.00 | 0.00 | 0.00 | 86 | 992.7 |
| 20260503221525 | 58 | 338 | 0.0 | 0.0 | 0.00 | 0.00 | 0.00 | 86 | 992.5 |
| 20260503221027 | 58 | 338 | 0.0 | 0.0 | 0.00 | 0.00 | 0.00 | 85 | 992.1 |
| 20260503220525 | 58 | 338 | 0.0 | 0.0 | 0.00 | 0.00 | 0.00 | 85 | 991.9 |
| 20260503220025 | 58 | 338 | 0.0 | 0.0 | 0.00 | 0.00 | 0.00 | 85 | 992.2 |
| 20260503215028 | 58 | 135 | 0.0 | 0.0 | 0.00 | 0.00 | 0.00 | 85 | 992.4 |
| 20260503214524 | 58 | 135 | 0.0 | 0.0 | 0.00 | 0.00 | 0.00 | 85 | 992.5 |
| 20260503214028 | 59 | 135 | 0.0 | 0.0 | 0.00 | 0.00 | 0.00 | 85 | 992.6 |
| 20260503213524 | 59 | 135 | 0.0 | 0.0 | 0.00 | 0.00 | 0.00 | 84 | 992.6 |
| 20260503213028 | 59 | 142 | 0.0 | 0.0 | 0.00 | 0.00 | 0.00 | 84 | 992.2 |
| 20260503212524 | 60 | 72 | 0.0 | 1.0 | 0.00 | 0.00 | 0.00 | 84 | 991.9 |
| 20260503212028 | 60 | 135 | 0.0 | 0.0 | 0.00 | 0.00 | 0.00 | 84 | 991.8 |
| 20260503211524 | 60 | 158 | 0.0 | 0.0 | 0.00 | 0.00 | 0.00 | 84 | 991.8 |
| 20260503211028 | 60 | 202 | 0.0 | 0.0 | 0.00 | 0.00 | 0.00 | 84 | 991.7 |
| 20260503210524 | 60 | 338 | 0.0 | 0.0 | 0.00 | 0.00 | 0.00 | 84 | 991.7 |
| 20260503210025 | 60 | 338 | 0.0 | 0.0 | 0.00 | 0.00 | 0.00 | 84 | 991.5 |
| 20260503205524 | 60 | 338 | 0.0 | 0.0 | 0.00 | 0.00 | 0.00 | 84 | 991.4 |
| 20260503205028 | 60 | 338 | 0.0 | 0.0 | 0.00 | 0.00 | 0.00 | 84 | 991.3 |
| 20260503204524 | 60 | 338 | 0.0 | 0.0 | 0.00 | 0.00 | 0.00 | 84 | 991.1 |
| 20260503204028 | 60 | 338 | 0.0 | 0.0 | 0.00 | 0.00 | 0.00 | 84 | 991.0 |
| 20260503203524 | 60 | 338 | 0.0 | 0.0 | 0.00 | 0.00 | 0.00 | 83 | 991.0 |
| 20260503203027 | 60 | 338 | 0.0 | 0.0 | 0.00 | 0.00 | 0.00 | 83 | 990.9 |
| 20260503202524 | 60 | 338 | 0.0 | 0.0 | 0.00 | 0.00 | 0.00 | 83 | 990.7 |
| 20260503202028 | 60 | 338 | 0.0 | 0.0 | 0.00 | 0.00 | 0.00 | 83 | 990.6 |
| 20260503201524 | 60 | 338 | 0.0 | 0.0 | 0.00 | 0.00 | 0.00 | 82 | 990.7 |
| 20260503201028 | 60 | 338 | 0.0 | 0.0 | 0.00 | 0.00 | 0.00 | 82 | 990.5 |
| 20260503200524 | 60 | 338 | 0.0 | 0.0 | 0.00 | 0.00 | 0.00 | 82 | 990.5 |
| 20260503200025 | 60 | 338 | 0.0 | 0.0 | 0.00 | 0.00 | 0.00 | 82 | 990.5 |
| 20260503195524 | 60 | 338 | 0.0 | 0.0 | 0.00 | 0.00 | 0.00 | 82 | 990.8 |
| 20260503195028 | 60 | 338 | 0.0 | 0.0 | 0.00 | 0.00 | 0.00 | 82 | 990.6 |
| 20260503194525 | 60 | 338 | 0.0 | 0.0 | 0.00 | 0.00 | 0.00 | 82 | 990.6 |
| 20260503194027 | 61 | 338 | 0.0 | 0.0 | 0.00 | 0.00 | 0.00 | 82 | 990.6 |
| 20260503193525 | 61 | 338 | 0.0 | 0.0 | 0.00 | 0.00 | 0.00 | 81 | 990.6 |
| 20260503193028 | 61 | 338 | 0.0 | 0.0 | 0.00 | 0.00 | 0.00 | 81 | 990.6 |
| 20260503192525 | 61 | 338 | 0.0 | 0.0 | 0.00 | 0.00 | 0.00 | 81 | 990.6 |
| 20260503192030 | 61 | 338 | 0.0 | 0.0 | 0.00 | 0.00 | 0.00 | 81 | 990.5 |
| 20260503191524 | 61 | 338 | 0.0 | 0.0 | 0.00 | 0.00 | 0.00 | 81 | 990.5 |
| 20260503191027 | 61 | 338 | 0.0 | 0.0 | 0.00 | 0.00 | 0.00 | 81 | 990.5 |
| 20260503190525 | 61 | 338 | 0.0 | 0.0 | 0.00 | 0.00 | 0.00 | 81 | 990.3 |
| 20260503190025 | 61 | 338 | 0.0 | 0.0 | 0.00 | 0.00 | 0.00 | 81 | 990.4 |
| 20260503185524 | 61 | 338 | 0.0 | 0.0 | 0.00 | 0.00 | 0.00 | 81 | 990.4 |
| 20260503185026 | 61 | 338 | 0.0 | 0.0 | 0.00 | 0.00 | 0.00 | 81 | 990.3 |
| 20260503184524 | 61 | 338 | 0.0 | 0.0 | 0.00 | 0.00 | 0.00 | 81 | 990.2 |
| 20260503184028 | 61 | 338 | 0.0 | 0.0 | 0.00 | 0.00 | 0.00 | 81 | 990.5 |
| 20260503183524 | 61 | 338 | 0.0 | 0.0 | 0.00 | 0.00 | 0.00 | 81 | 990.4 |
| 20260503183028 | 61 | 338 | 0.0 | 0.0 | 0.00 | 0.00 | 0.00 | 81 | 990.4 |
| 20260503182524 | 61 | 338 | 0.0 | 0.0 | 0.00 | 0.00 | 0.00 | 80 | 990.4 |
| 20260503182027 | 62 | 338 | 0.0 | 0.0 | 0.00 | 0.00 | 0.00 | 80 | 990.2 |
| 20260503181524 | 62 | 163 | 0.0 | 0.0 | 0.00 | 0.00 | 0.00 | 80 | 990.3 |
| 20260503181027 | 62 | 54 | 0.0 | 0.0 | 0.00 | 0.00 | 0.00 | 80 | 990.2 |
| 20260503180524 | 62 | 90 | 0.0 | 0.0 | 0.00 | 0.00 | 0.00 | 80 | 989.9 |
| 20260503180024 | 62 | 90 | 0.0 | 0.0 | 0.00 | 0.00 | 0.00 | 80 | 989.8 |
| 20260503175524 | 62 | 90 | 0.0 | 0.0 | 0.00 | 0.00 | 0.00 | 80 | 989.8 |
| 20260503175026 | 62 | 90 | 0.0 | 0.0 | 0.00 | 0.00 | 0.00 | 79 | 989.8 |
| 20260503174525 | 62 | 90 | 0.0 | 0.0 | 0.00 | 0.00 | 0.00 | 79 | 989.8 |
| 20260503174027 | 62 | 90 | 0.0 | 0.0 | 0.00 | 0.00 | 0.00 | 79 | 989.7 |
| 20260503173524 | 62 | 90 | 0.0 | 0.0 | 0.00 | 0.00 | 0.00 | 79 | 989.8 |
| 20260503173026 | 62 | 158 | 0.0 | 0.0 | 0.00 | 0.00 | 0.00 | 77 | 989.6 |
| 20260503172523 | 62 | 338 | 0.0 | 0.0 | 0.00 | 0.00 | 0.00 | 77 | 989.4 |
| 20260503172026 | 63 | 0 | 0.0 | 0.0 | 0.00 | 0.00 | 0.00 | 76 | 989.4 |
| 20260503171524 | 64 | 0 | 0.0 | 0.0 | 0.00 | 0.00 | 0.00 | 75 | 989.5 |
| 20260503171026 | 65 | 0 | 1.0 | 5.0 | 0.00 | 0.00 | 0.00 | 74 | 989.6 |
| 20260503170523 | 65 | 132 | 0.0 | 0.0 | 0.00 | 0.00 | 0.00 | 72 | 989.3 |
| 20260503150524 | 70 | 171 | 0.0 | 5.0 | 0.00 | 0.00 | 0.00 | 63 | 988.6 |
| 20260503131027 | 69 | 180 | 0.0 | 0.0 | 0.00 | 0.00 | 0.00 | 64 | 990.7 |
| 20260503130524 | 69 | 180 | 0.0 | 0.0 | 0.00 | 0.00 | 0.00 | 65 | 991.0 |
| 20260503110523 | 70 | 143 | 0.0 | 0.0 | 0.00 | 0.00 | 0.00 | 61 | 992.1 |
| 20260503081523 | 81 | 112 | 0.0 | 0.0 | 0.00 | 0.00 | 0.00 | 54 | 992.1 |
| 20260503081026 | 82 | 112 | 0.0 | 0.0 | 0.00 | 0.00 | 0.00 | 54 | 992.0 |
| 20260503080523 | 81 | 112 | 0.0 | 0.0 | 0.00 | 0.00 | 0.00 | 56 | 991.9 |
| 20260503072523 | 71 | 338 | 0.0 | 0.0 | 0.00 | 0.00 | 0.00 | 74 | 991.9 |
| 20260503072025 | 69 | 338 | 0.0 | 0.0 | 0.00 | 0.00 | 0.00 | 75 | 992.0 |
| 20260503071523 | 68 | 338 | 0.0 | 0.0 | 0.00 | 0.00 | 0.00 | 76 | 992.1 |
| 20260503071025 | 68 | 338 | 0.0 | 0.0 | 0.00 | 0.00 | 0.00 | 74 | 992.2 |
| 20260503070523 | 69 | 338 | 0.0 | 0.0 | 0.00 | 0.00 | 0.00 | 74 | 992.2 |
| 20260503055025 | 55 | 338 | 0.0 | 0.0 | 0.00 | 0.00 | 0.00 | 90 | 992.1 |
| 20260503054522 | 55 | 338 | 0.0 | 0.0 | 0.00 | 0.00 | 0.00 | 90 | 992.1 |
| 20260503054025 | 55 | 338 | 0.0 | 0.0 | 0.00 | 0.00 | 0.00 | 90 | 992.1 |
| 20260503053523 | 55 | 338 | 0.0 | 0.0 | 0.00 | 0.00 | 0.00 | 90 | 992.0 |
| 20260503053026 | 55 | 338 | 0.0 | 0.0 | 0.00 | 0.00 | 0.00 | 90 | 991.9 |
| 20260503052522 | 55 | 338 | 0.0 | 0.0 | 0.00 | 0.00 | 0.00 | 90 | 991.9 |
| 20260503052025 | 55 | 338 | 0.0 | 0.0 | 0.00 | 0.00 | 0.00 | 90 | 992.0 |
| 20260503051522 | 55 | 338 | 0.0 | 0.0 | 0.00 | 0.00 | 0.00 | 90 | 991.7 |
| 20260503051025 | 55 | 338 | 0.0 | 0.0 | 0.00 | 0.00 | 0.00 | 90 | 991.9 |
| 20260503050523 | 55 | 338 | 0.0 | 0.0 | 0.00 | 0.00 | 0.00 | 90 | 991.9 |
| 20260503050022 | 55 | 338 | 0.0 | 0.0 | 0.00 | 0.00 | 0.00 | 90 | 992.0 |
| 20260503045029 | 55 | 338 | 0.0 | 0.0 | 0.00 | 0.00 | 0.00 | 90 | 992.0 |
| 20260503044522 | 55 | 338 | 0.0 | 0.0 | 0.00 | 0.00 | 0.00 | 90 | 991.8 |
| 20260503044025 | 55 | 338 | 0.0 | 0.0 | 0.00 | 0.00 | 0.00 | 90 | 991.8 |
| 20260503043523 | 55 | 338 | 0.0 | 0.0 | 0.00 | 0.00 | 0.00 | 90 | 991.9 |
| 20260503043024 | 55 | 338 | 0.0 | 0.0 | 0.00 | 0.00 | 0.00 | 90 | 991.9 |
| 20260503042523 | 55 | 338 | 0.0 | 0.0 | 0.00 | 0.00 | 0.00 | 90 | 992.0 |
| 20260503042025 | 55 | 338 | 0.0 | 0.0 | 0.00 | 0.00 | 0.00 | 90 | 991.9 |
| 20260503041522 | 55 | 338 | 0.0 | 0.0 | 0.00 | 0.00 | 0.00 | 90 | 991.8 |
| 20260503041025 | 55 | 338 | 0.0 | 0.0 | 0.00 | 0.00 | 0.00 | 90 | 992.0 |
| 20260503040522 | 55 | 338 | 0.0 | 0.0 | 0.00 | 0.00 | 0.00 | 90 | 991.9 |
| 20260503040022 | 55 | 338 | 0.0 | 0.0 | 0.00 | 0.00 | 0.00 | 90 | 991.9 |
| 20260503035522 | 55 | 338 | 0.0 | 0.0 | 0.00 | 0.00 | 0.00 | 90 | 991.9 |
| 20260503035025 | 55 | 338 | 0.0 | 0.0 | 0.00 | 0.00 | 0.00 | 90 | 991.9 |
| 20260503034523 | 55 | 338 | 0.0 | 0.0 | 0.00 | 0.00 | 0.00 | 89 | 991.9 |
| 20260503034025 | 55 | 68 | 0.0 | 0.0 | 0.00 | 0.00 | 0.00 | 89 | 992.0 |
| 20260503033523 | 55 | 68 | 0.0 | 0.0 | 0.00 | 0.00 | 0.00 | 89 | 992.0 |
| 20260503033025 | 55 | 68 | 0.0 | 0.0 | 0.00 | 0.00 | 0.00 | 89 | 991.9 |
| 20260503032522 | 55 | 68 | 0.0 | 0.0 | 0.00 | 0.00 | 0.00 | 89 | 992.0 |
| 20260503032025 | 55 | 68 | 0.0 | 0.0 | 0.00 | 0.00 | 0.00 | 89 | 992.0 |
| 20260503031522 | 55 | 68 | 0.0 | 0.0 | 0.00 | 0.00 | 0.00 | 89 | 992.0 |
| 20260503031025 | 55 | 68 | 0.0 | 0.0 | 0.00 | 0.00 | 0.00 | 89 | 992.1 |
| 20260503030522 | 55 | 68 | 0.0 | 0.0 | 0.00 | 0.00 | 0.00 | 89 | 992.2 |
| 20260503030022 | 55 | 68 | 0.0 | 0.0 | 0.00 | 0.00 | 0.00 | 89 | 992.2 |
| 20260503025523 | 55 | 90 | 0.0 | 0.0 | 0.00 | 0.00 | 0.00 | 89 | 992.2 |
| 20260503025025 | 56 | 104 | 0.0 | 0.0 | 0.00 | 0.00 | 0.00 | 89 | 992.1 |
| 20260503024522 | 56 | 0 | 0.0 | 0.0 | 0.00 | 0.00 | 0.00 | 89 | 992.1 |
| 20260503024025 | 56 | 0 | 0.0 | 0.0 | 0.00 | 0.00 | 0.00 | 89 | 992.1 |
| 20260503023522 | 56 | 0 | 0.0 | 0.0 | 0.00 | 0.00 | 0.00 | 89 | 992.1 |
| 20260503023025 | 56 | 45 | 0.0 | 0.0 | 0.00 | 0.00 | 0.00 | 89 | 992.1 |
| 20260503022522 | 56 | 90 | 0.0 | 0.0 | 0.00 | 0.00 | 0.00 | 89 | 992.3 |
| 20260503022025 | 56 | 90 | 0.0 | 0.0 | 0.00 | 0.00 | 0.00 | 89 | 992.3 |
| 20260503021523 | 56 | 102 | 0.0 | 0.0 | 0.00 | 0.00 | 0.00 | 88 | 992.5 |
| 20260503021025 | 56 | 112 | 0.0 | 0.0 | 0.00 | 0.00 | 0.00 | 88 | 992.5 |
| 20260503020523 | 56 | 112 | 0.0 | 0.0 | 0.00 | 0.00 | 0.00 | 88 | 992.6 |
| 20260503020022 | 56 | 22 | 0.0 | 0.0 | 0.00 | 0.00 | 0.00 | 88 | 992.5 |
| 20260503015522 | 56 | 69 | 0.0 | 0.0 | 0.00 | 0.00 | 0.00 | 88 | 992.5 |
| 20260503015025 | 56 | 68 | 0.0 | 0.0 | 0.00 | 0.00 | 0.00 | 88 | 992.7 |
| 20260503014522 | 56 | 112 | 0.0 | 0.0 | 0.00 | 0.00 | 0.00 | 88 | 992.7 |
| 20260503014025 | 56 | 90 | 0.0 | 0.0 | 0.00 | 0.00 | 0.00 | 88 | 992.6 |
| 20260503013523 | 57 | 68 | 0.0 | 0.0 | 0.00 | 0.00 | 0.00 | 88 | 992.7 |
| 20260503013025 | 57 | 112 | 0.0 | 0.0 | 0.00 | 0.00 | 0.00 | 88 | 992.7 |
| 20260503012522 | 57 | 112 | 0.0 | 0.0 | 0.00 | 0.00 | 0.00 | 88 | 992.7 |